Flag for Canada Weather past 2 weeks in Conception Bay South, Newfoundland and Labrador, Canada

Now
25 °F

Clear.


Feels Like: 18 °F
Forecast: 27 / 32 °F
Wind: 6 mph from Southwest

Location: St. John's


UV Index: 0 (Low)

Visibility: 15 mi


Pressure: 30.55 "Hg

Humidity: 80%

Dew point: 19 °F

Location of Conception Bay SouthLocation

Historic Weather in Conception Bay South

°F

Conception Bay South temperature yesterday

Maximum temperature yesterday: 45 °F (at 12:30 AM)
Minimum temperature yesterday: 25 °F (at 10:30 PM)
Average temperature yesterday: 35 °F

Past Weeks' High & Low Weather Summary

 TemperatureHumidityPressure
High64 °F (Apr 16, 1:30 PM)100% (Apr 5, 3:30 AM)30.77 "Hg (Apr 5, 3:30 AM)
Low21 °F (Apr 3, 10:30 PM)37% (Apr 11, 12:30 PM)29.35 "Hg (Apr 10, 4:30 AM)
Average36 °F82%30.09 "Hg
* Reported Apr 3 10:30 PM — Apr 18 10:30 PM, Conception Bay South, Weather by CustomWeather, © 2014

Note: Actual official high and low records may vary slightly from our data, if they occured in-between our weather recording intervals... More about our weather records

Advertising

Historic Weather Conditions — Data for Previous 24 hours

 ConditionsComfort  
Time TempWeatherWind HumidityBarometerVisibility
10:30 PM
Apr 18
25 °FClear.6 mph80%30.55 "Hg15 mi
9:30 PM27 °FClear.10 mph69%30.58 "Hg15 mi
8:30 PM28 °FPassing clouds.7 mph59%30.58 "Hg15 mi
7:30 PM28 °FPartly sunny.15 mph64%30.59 "Hg15 mi
6:30 PM32 °FScattered clouds.15 mph60%30.60 "Hg15 mi
5:30 PM34 °FBroken clouds.18 mph60%30.60 "Hg15 mi
4:30 PM34 °FScattered clouds.17 mph60%30.62 "Hg15 mi
3:30 PM34 °FPassing clouds.17 mph60%30.64 "Hg15 mi
2:30 PM34 °FScattered clouds.15 mph60%30.67 "Hg15 mi
1:30 PM34 °FScattered clouds.14 mph60%30.70 "Hg15 mi
12:30 PM34 °FScattered clouds.14 mph60%30.72 "Hg15 mi
11:30 AM30 °FScattered clouds.8 mph64%30.74 "Hg15 mi
10:30 AM30 °FPartly sunny.8 mph64%30.75 "Hg15 mi
9:30 AM32 °FPartly sunny.5 mph60%30.76 "Hg15 mi
8:30 AM28 °FPartly sunny.6 mph69%30.76 "Hg15 mi
7:30 AM25 °FPassing clouds.No wind80%30.77 "Hg15 mi
6:30 AM21 °FPassing clouds.3 mph86%30.76 "Hg15 mi
5:30 AM23 °FClear.No wind80%30.75 "Hg15 mi
4:30 AM23 °FPassing clouds.3 mph80%30.74 "Hg15 mi
3:30 AM23 °FPassing clouds.6 mph80%30.74 "Hg15 mi
2:30 AM23 °FPassing clouds.6 mph80%30.73 "Hg15 mi
1:30 AM25 °FPassing clouds.6 mph74%30.74 "Hg15 mi
12:30 AM25 °FClear.7 mph74%30.76 "Hg15 mi
11:30 PM
Apr 17
25 °FClear.6 mph80%30.76 "Hg15 mi
Weather by CustomWeather, © 2014

See weather overview